This demonstration page uses our WeatherBlox Daily Observations layout. Learn more.

Left ArrowRight Arrow

39.51506, -84.39828

Hourly Observations for February 11, 2020

Temp ( °F °C ) Dew Point ( °F °C ) Humidity (%) Winds ( mph kmh ) Pressure ( in mb ) Visibility ( mi km ) Precip ( " mm )
12:15 am 00:15 Cloudy with Mist and Fog 35 1.7 34 0.9 94 94 N 8 13 30.11 1020 5 8.0467 0 0
12:35 am 00:35 Cloudy with Mist and Fog 35 1.6 33 0.8 94 94 N 8 13 30.12 1020 5 8.0467 0 0
12:55 am 00:55 Cloudy with Mist and Fog 35 1.6 33 0.8 94 94 N 5 7 30.12 1020 5 8.0467 0 0
1:15 am 01:15 Cloudy with Mist and Fog 35 1.6 33 0.8 94 94 N 3 6 30.12 1020 5 8.0467 0 0
1:35 am 01:35 Cloudy with Mist and Fog 35 1.6 33 0.7 94 94 NNW 3 6 30.13 1020 5 8.0467 0 0
1:55 am 01:55 Cloudy with Mist and Fog 35 1.6 33 0.6 93 93 N 3 6 30.13 1020 5 8.0467 0 0
2:15 am 02:15 Cloudy with Mist and Fog 35 1.6 33 0.4 92 92 Calm 30.15 1021 7 11.26538 0 0
2:35 am 02:35 Cloudy with Mist and Fog 35 1.6 33 0.5 93 93 Calm 30.15 1021 7 11.26538 0 0
2:55 am 02:55 Cloudy with Mist and Fog 35 1.6 33 0.4 92 92 NW 3 6 30.14 1021 7 11.26538 0 0
3:15 am 03:15 Cloudy with Mist and Fog 35 1.4 33 0.3 92 92 N 6 9 30.11 1020 7 11.26538 0 0
3:35 am 03:35 Mostly Cloudy with Mist and Fog 35 1.4 32 0.1 91 91 Calm 30.13 1020 7 11.26538 0 0
3:55 am 03:55 Cloudy 35 1.4 32 -0.2 89 89 NNW 3 6 30.11 1020 7 11.26538 0 0
4:15 am 04:15 Cloudy with Mist and Fog 34 1.3 32 0 91 91 N 3 6 30.12 1020 7 11.26538 0 0
4:35 am 04:35 Cloudy 34 1.3 32 -0.1 91 91 N 5 7 30.1 1019 7 11.26538 0 0
4:55 am 04:55 Cloudy 34 1.2 32 -0.1 91 91 N 5 7 30.11 1020 7 11.26538 0 0
5:15 am 05:15 Cloudy 34 1.2 32 -0.2 91 91 Calm 30.13 1020 7 11.26538 0 0
5:35 am 05:35 Cloudy 34 1.3 31 -0.3 89 89 Calm 30.14 1021 7 11.26538 0 0
5:55 am 05:55 Cloudy 34 1.2 31 -0.5 89 89 Calm 30.13 1020 7 11.26538 0 0
6:15 am 06:15 Cloudy 34 1.2 31 -0.4 89 89 Calm 30.14 1021 7 11.26538 0 0
6:35 am 06:35 Cloudy with Light Rain 34 1 32 0 93 93 N 3 6 30.13 1020 7 11.26538 0 0
6:55 am 06:55 Cloudy 34 1.1 31 -0.5 89 89 NNE 3 6 30.13 1020 7 11.26538 0 0
7:15 am 07:15 Cloudy with Light Rain 34 1.1 31 -0.6 89 89 N 5 7 30.13 1020 7 11.26538 0 0
7:35 am 07:35 Cloudy with Mist and Fog 34 1.1 31 -0.7 88 88 N 5 7 30.13 1020 5 8.0467 0 0
7:55 am 07:55 Cloudy with Light Snow 34 1.1 31 -0.5 89 89 Calm 30.13 1020 4 6.43736 0 0
8:15 am 08:15 Cloudy with Mist and Fog 34 1.2 31 -0.3 90 90 NE 3 6 30.12 1020 5 8.0467 0 0
8:35 am 08:35 Cloudy with Mist and Fog 34 1.3 32 -0.2 90 90 Calm 30.13 1020 4 6.43736 0 0
8:55 am 08:55 Cloudy with Mist and Fog 35 1.4 32 -0.2 89 89 N 5 7 30.13 1020 4 6.43736 0 0
9:15 am 09:15 Cloudy with Mist and Fog 35 1.6 32 0 89 89 N 7 11 30.12 1020 4 6.43736 0 0
9:35 am 09:35 Cloudy with Mist and Fog 35 1.6 32 -0.2 88 88 NNE 5 7 30.12 1020 4 6.43736 0 0
9:55 am 09:55 Cloudy with Light Rain 35 1.8 32 -0.1 87 87 Calm 30.12 1020 4 6.43736 0 0
10:15 am 10:15 Cloudy with Mist and Fog 36 2.3 32 0.2 86 86 Calm 30.11 1020 4 6.43736 0 0
10:35 am 10:35 Cloudy with Mist and Fog 36 2.3 32 -0.1 84 84 NW 5 7 30.14 1021 5 8.0467 0 0
10:55 am 10:55 Cloudy with Haze 37 2.6 32 -0.1 83 83 NW 3 6 30.14 1021 5 8.0467 0 0
11:15 am 11:15 Cloudy with Haze 37 2.9 32 -0.1 81 81 WNW 6 9 30.14 1021 5 8.0467 0 0
11:35 am 11:35 Cloudy with Haze 38 3.2 32 0.2 81 81 NNW 6 9 30.14 1021 5 8.0467 0 0
11:55 am 11:55 Cloudy with Haze 38 3.3 31 -0.3 78 78 NNW 8 13 30.14 1021 7 11.26538 0 0
12:15 pm 12:15 Cloudy with Haze 38 3.6 31 -0.3 76 76 WNW 7 11 30.13 1020 7 11.26538 0 0
12:35 pm 12:35 Cloudy with Haze 39 3.8 31 -0.3 75 75 NNW 5 7 30.13 1020 7 11.26538 0 0
12:55 pm 12:55 Cloudy 39 3.9 31 -0.8 72 72 WNW 5 7 30.12 1020 7 11.26538 0 0
1:15 pm 13:15 Cloudy 39 4.1 31 -0.8 71 71 W 7 11 30.11 1020 7 11.26538 0 0
1:35 pm 13:35 Cloudy 40 4.3 31 -0.6 71 71 W 7 11 30.1 1019 7 11.26538 0 0
1:55 pm 13:55 Cloudy 40 4.6 30 -1 67 67 WNW 12 19 30.11 1020 10 16.0934 0 0
2:15 pm 14:15 Cloudy 41 4.9 31 -0.6 68 68 NW 9 15 30.11 1020 10 16.0934 0 0
2:35 pm 14:35 Cloudy 40 4.5 29 -1.6 65 65 WNW 7 11 30.11 1020 10 16.0934 0 0
2:55 pm 14:55 Cloudy 40 4.5 29 -1.4 66 66 WSW 8 13 30.11 1020 10 16.0934 0 0
3:15 pm 15:15 Cloudy 40 4.5 29 -1.5 65 65 W 12 19 30.11 1020 10 16.0934 0 0
3:35 pm 15:35 Cloudy 40 4.6 29 -1.4 65 65 W 9 15 30.12 1020 10 16.0934 0 0
3:55 pm 15:55 Cloudy 40 4.6 29 -1.8 64 64 W 8 13 30.12 1020 10 16.0934 0 0
4:15 pm 16:15 Partly Cloudy 41 5.1 28 -2.1 60 60 W 13 20 30.13 1020 10 16.0934 0 0
4:35 pm 16:35 Mostly Cloudy 42 5.3 28 -2.4 58 58 WNW 10 17 30.14 1021 10 16.0934 0 0
4:55 pm 16:55 Sunny 40 4.6 26 -3.5 56 56 W 13 20 30.14 1021 10 16.0934 0 0
5:15 pm 17:15 Partly Cloudy 39 3.9 27 -3 61 61 W 9 15 30.14 1021 10 16.0934 0 0
5:35 pm 17:35 Mostly Cloudy 39 3.7 27 -2.7 63 63 W 8 13 30.15 1021 10 16.0934 0 0
5:55 pm 17:55 Partly Cloudy 38 3.2 27 -2.8 65 65 W 6 9 30.15 1021 10 16.0934 0 0
6:15 pm 18:15 Partly Cloudy 36 2.2 27 -2.8 70 70 W 5 7 30.17 1022 10 16.0934 0 0
6:35 pm 18:35 Partly Cloudy 35 1.9 27 -2.9 71 71 Calm 30.18 1022 10 16.0934 0 0
6:55 pm 18:55 Clear 36 2.4 28 -2.5 70 70 Calm 30.19 1022 10 16.0934 0 0
7:15 pm 19:15 Partly Cloudy 37 2.7 27 -2.7 68 68 W 6 9 30.21 1023 10 16.0934 0 0
7:35 pm 19:35 Cloudy 37 2.6 27 -2.6 69 69 W 3 6 30.22 1023 10 16.0934 0 0
7:55 pm 19:55 Cloudy 37 2.6 28 -2.4 70 70 W 3 6 30.23 1024 10 16.0934 0 0
8:15 pm 20:15 Mostly Cloudy 37 2.5 28 -2.2 71 71 W 3 6 30.23 1024 10 16.0934 0 0
8:35 pm 20:35 Cloudy 37 2.5 28 -2 73 73 W 3 6 30.23 1024 10 16.0934 0 0
8:55 pm 20:55 Clear 36 2.3 29 -1.8 75 75 Calm 30.24 1024 10 16.0934 0 0
9:15 pm 21:15 Clear 35 1.6 28 -2 77 77 Calm 30.23 1024 10 16.0934 0 0
9:35 pm 21:35 Clear 34 1.1 28 -2.1 79 79 Calm 30.23 1024 10 16.0934 0 0
9:55 pm 21:55 Clear 34 1.3 29 -1.9 79 79 SW 3 6 30.24 1024 10 16.0934 0 0
10:15 pm 22:15 Clear 34 0.9 29 -1.6 84 84 WSW 3 6 30.25 1024 10 16.0934 0 0
10:35 pm 22:35 Clear 34 1.3 28 -2 79 79 W 3 6 30.25 1024 10 16.0934 0 0
10:55 pm 22:55 Clear 33 0.6 28 -2 83 83 WSW 5 7 30.25 1025 10 16.0934 0 0
11:15 pm 23:15 Clear 32 -0.1 29 -1.4 91 91 Calm 30.26 1025 10 16.0934 0 0
11:35 pm 23:35 Clear 32 -0.2 29 -1.4 92 92 Calm 30.25 1024 10 16.0934 0 0
11:55 pm 23:55 Clear 31 -0.4 29 -1.4 93 93 Calm 30.26 1025 10 16.0934 0 0

Powered by AerisWeather